User: anonymous   Login
Location: ActonStarParty
(42.4766°N, 71.4538°W)
Time: 18:18:42
(UTC-04:00)
Language:

Cosmos 1300 - Orbit

View from above orbital plane
View from above orbital plane
View from above satellite
View from above satellite

Ground track
Ground track

The orbit data is extracted from the following two-line orbital elements,

1 12785U 81082A   16239.86979152 +.00000637 +00000-0 +31376-4 0  9990
2 12785 082.5062 004.1166 0001939 130.9425 346.4548 15.16217098907002
Epoch (UTC): 26 August 2016 20:52:29
Eccentricity: 0.0001939
inclination: 82.5062°
perigee height: 516 km
apogee height: 518 km
right ascension of ascending node: 4.1166°
argument of perigee: 130.9425°
revolutions per day: 15.16217098
mean anomaly at epoch: 346.4548°
orbit number at epoch: 90700

The dashed part of the orbit path shows where the satellite is in the earth's shadow,  

DLR